SCP
0 0 0 0 0 0 0 0 0 0 0 0 0 0 0 0 0 0 0 0 0 0 0 0 0 0 0 0 0 0 0 0
0 0 0 0 0 0 0 0 0 0 0 0 0 0 0 0 0 0 0 0 0 0 0 0 0 0 0 0 0 0 0 0
0 0 0 0 0 0 0 0 0 0 0 0 0 0 0 0 0 0 0 0 0 0 0 0 0 0 0 0 0 0 0 0
0 0 0 0 0 0 0 0 0 0 0 0 0 0 0 0 0 0 0 0 0 0 0 0 0 0 0 0 0 0 0 0
0 0 0 0 0 0 0 0 0 0 0 0 0 0 0 0 0 0 0 0 0 0 0 0 0 0 0 0 0 0 0 0
0 0 0 0 0 0 0 0 0 0 0 0 0 0 0 0 0 0 0 0 0 0 0 0 0 0 0 0 0 0 0 0
0 0 0 0 0 0 0 0 0 0 0 0 0 0 0 0 0 0 0 0 0 0 0 0 0 0 0 0 0 0 0 0
0 0 0 0 0 0 0 0 0 0 0 0 0 0 0 0 0 0 0 0 0 0 0 0 0 0 0 0 0 0 0 0
0 0 0 0 0 0 0 0 0 0 0 0 0 0 0 0 0 0 0 0 0 0 0 0 0 0 0 0 0 0 0 0
0 0 0 0 0 0 0 0 0 0 0 0 0 0 0 0 0 0 0 0 0 0 0 0 0 0 0 0 0 0 0 0
0 0 0 0 0 0 0 0 0 0 0 0 0 0 0 0 0 0 0 0 0 0 0 0 0 0 0 0 0 0 0 0
0 0 0 0 0 0 0 0 0 0 0 0 0 0 0 0 0 0 0 0 0 0 0 0 0 0 0 0 0 0 0 0
0 0 0 0 0 0 0 0 0 0 0 0 0 0 0 0 0 0 0 0 0 0 0 0 0 0 0 0 0 0 0 0
0 0 0 0 0 0 0 0 0 0 0 0 0 0 0 0 0 0 0 0 0 0 0 0 0 0 -0 0 0 0 0 0
0 0 0 0 0 0 0 0 0 0 0 0 0 0 0 0 0 0 0 0 0 0 0 0 0 0 0 0 0 0 0 0
0 0 0 0 0 0 0 0 0 0 0 0 0 0 0 0 0 0 0 0 0 0 0 0 0 0 0 0 0 0 0 0
0 0 0 0 0 0 0 0 0 0 0 0 0 0 0 0 0 0 0 0 0 0 0 0 0 -0 0 0 0 0 0 0
0 0 0 0 0 0 0 0 0 0 0 0 0 0 0 0 0 0 0 0 0 0 0 0 0 0 0 0 0 0 0 0
0 0 0 0 0 0 0 0 0 0 0 0 0 0 0 0 0 0 0 0 0 0 0 0 0 0 0 0 0 0 0 0
0 0 0 0 0 0 0 0 0 0 0 0 0 0 0 0 0 0 0 0 0 0 0 0 0 0 0 0 0 0 0 0
Wind_Speed_500mb
54 60 59 57 59 64 69 74 73 84 89 91 85 77 72 66 58 49 47 47 46 48 53 56 59 61 61 63 63 66 69 72
57 59 59 56 68 68 70 74 78 87 92 92 86 79 73 64 56 50 46 46 48 51 53 54 55 57 59 60 64 66 69 70
54 63 66 68 73 77 75 77 82 87 94 94 88 79 70 63 55 48 45 47 50 50 51 52 54 56 58 62 64 68 71 72
55 61 70 77 77 83 82 81 85 90 93 92 88 80 72 64 54 48 46 47 50 49 49 51 53 57 59 64 68 69 71 74
61 72 76 80 81 83 84 82 86 91 95 93 92 81 70 59 53 48 48 49 47 45 45 51 56 59 61 64 67 71 75 78
68 75 81 83 85 83 82 85 90 93 94 94 89 79 70 59 54 52 50 47 43 41 45 52 56 57 60 65 69 75 81 84
87 85 84 92 91 86 87 92 92 95 92 94 92 81 70 63 58 52 48 41 37 41 46 53 55 55 58 64 71 78 80 85
77 76 85 89 91 88 87 90 92 91 88 96 87 76 69 63 56 50 44 38 37 40 46 51 52 53 57 66 73 76 78 78
75 70 75 75 75 75 79 86 90 87 91 91 87 78 71 63 55 47 40 36 35 38 44 48 48 52 58 68 68 74 79 84
68 66 66 60 58 67 74 81 81 85 88 91 83 76 69 59 49 41 38 33 31 37 41 46 46 49 57 56 64 75 86 87
52 53 57 54 55 61 73 79 84 88 91 89 82 71 62 51 42 38 34 29 30 34 38 43 46 48 52 48 61 80 89 97
53 51 52 56 60 66 71 80 84 83 91 91 83 73 61 48 42 36 31 28 27 32 32 35 41 47 42 44 56 72 87 97
64 60 60 61 62 69 76 80 88 88 93 88 78 66 55 47 41 34 28 23 25 28 28 30 36 42 42 46 53 62 74 84
64 66 67 69 72 78 82 88 83 95 93 84 70 60 54 46 38 30 23 20 21 21 26 30 35 40 44 50 55 60 66 67
69 70 72 73 73 78 86 81 89 98 87 80 70 62 52 44 35 25 22 19 16 17 21 28 34 39 52 59 66 70 68 73
82 76 76 74 79 89 88 86 101 95 91 82 71 59 51 40 31 25 20 15 13 13 18 26 31 39 45 51 59 64 61 70
91 82 82 79 87 93 87 99 108 102 94 82 68 59 51 44 35 27 18 11 9 10 13 19 22 30 39 46 50 51 54 67
98 97 89 90 91 96 96 115 105 101 89 75 69 62 56 46 37 28 20 13 7 5 11 17 23 26 33 40 46 53 60 72
106 100 92 94 98 102 111 114 109 102 83 77 67 61 53 46 37 31 24 16 9 2 9 15 18 24 33 41 46 56 64 70
86 87 89 94 101 105 122 120 108 86 82 73 66 58 51 44 39 34 27 20 12 5 5 8 14 21 28 36 49 59 66 71
Wind_Direction_500mb
232 228 223 227 225 228 231 236 237 238 236 233 231 230 230 233 241 248 258 268 278 285 291 294 296 298 298 299 299 295 293 290
239 234 230 235 231 231 232 233 234 237 235 232 228 226 228 233 237 245 257 269 278 285 289 294 299 299 300 302 299 296 295 294
244 238 234 239 235 234 234 233 237 235 233 230 226 224 226 230 236 246 258 267 276 282 289 296 300 303 304 303 301 299 297 298
242 236 245 242 238 237 236 236 233 232 231 228 221 221 224 228 237 246 256 265 272 281 291 299 304 303 305 304 303 301 299 298
242 253 256 250 247 242 239 236 233 231 230 228 220 220 222 227 236 248 255 263 272 285 297 302 304 306 309 308 305 303 301 301
247 248 256 254 249 243 241 237 233 230 229 225 218 218 219 224 233 243 253 263 275 291 298 302 304 308 310 308 306 306 305 302
265 263 254 258 257 251 241 235 232 231 228 220 215 215 218 223 231 241 251 262 279 290 299 300 303 309 311 311 309 305 304 306
273 266 265 261 260 254 241 233 231 228 225 217 213 214 219 224 231 238 248 263 278 290 298 301 306 310 313 311 307 306 308 305
277 271 267 264 256 247 238 234 230 226 223 214 212 212 218 225 231 239 249 261 277 292 298 302 310 310 312 309 310 313 315 312
277 273 270 262 250 241 231 228 225 223 218 211 211 213 217 223 231 239 250 264 283 295 300 304 310 312 314 321 321 319 315 311
273 271 268 257 241 230 227 224 224 222 212 207 209 214 221 224 230 241 253 269 287 297 303 308 313 318 326 327 323 319 315 317
268 269 259 248 239 230 225 225 223 216 206 204 206 210 216 223 229 238 252 270 287 296 307 310 319 326 330 327 323 319 318 312
257 259 252 244 235 229 225 219 217 207 200 203 203 208 216 221 227 233 247 267 284 301 311 318 325 332 333 328 324 323 317 318
257 248 243 239 233 228 224 219 211 198 195 197 201 208 213 218 220 229 243 264 285 300 314 327 334 340 338 331 329 328 327 328
257 244 240 236 230 227 225 215 202 193 192 195 202 206 209 213 217 227 241 257 278 301 323 336 341 344 346 335 336 335 333 332
269 261 251 234 224 223 218 208 193 190 193 197 200 201 203 207 211 217 230 250 279 308 334 339 342 348 334 337 339 337 335 336
268 257 249 231 222 220 212 196 191 190 190 194 197 198 204 199 199 205 212 237 273 321 326 338 342 334 335 343 346 344 345 355
268 266 246 233 223 218 205 192 192 193 190 195 197 199 196 194 193 192 194 199 230 290 321 354 347 341 347 348 356 0 1 7
264 253 243 232 222 212 197 190 189 190 191 198 198 194 189 186 185 185 188 185 190 259 358 359 359 357 359 358 354 3 11 9
249 242 234 225 217 202 189 189 186 188 189 190 191 187 188 184 180 182 178 175 165 136 50 8 12 9 7 9 10 10 11 9
Wind_Speed_850mb
54 60 59 57 59 64 69 74 73 84 89 91 85 77 72 66 58 49 47 47 46 48 53 56 59 61 61 63 63 66 69 72
57 59 59 56 68 68 70 74 78 87 92 92 86 79 73 64 56 50 46 46 48 51 53 54 55 57 59 60 64 66 69 70
54 63 66 68 73 77 75 77 82 87 94 94 88 79 70 63 55 48 45 47 50 50 51 52 54 56 58 62 64 68 71 72
55 61 70 77 77 83 82 81 85 90 93 92 88 80 72 64 54 48 46 47 50 49 49 51 53 57 59 64 68 69 71 74
61 72 76 80 81 83 84 82 86 91 95 93 92 81 70 59 53 48 48 49 47 45 45 51 56 59 61 64 67 71 75 78
68 75 81 83 85 83 82 85 90 93 94 94 89 79 70 59 54 52 50 47 43 41 45 52 56 57 60 65 69 75 81 84
87 85 84 92 91 86 87 92 92 95 92 94 92 81 70 63 58 52 48 41 37 41 46 53 55 55 58 64 71 78 80 85
77 76 85 89 91 88 87 90 92 91 88 96 87 76 69 63 56 50 44 38 37 40 46 51 52 53 57 66 73 76 78 78
75 70 75 75 75 75 79 86 90 87 91 91 87 78 71 63 55 47 40 36 35 38 44 48 48 52 58 68 68 74 79 84
68 66 66 60 58 67 74 81 81 85 88 91 83 76 69 59 49 41 38 33 31 37 41 46 46 49 57 56 64 75 86 87
52 53 57 54 55 61 73 79 84 88 91 89 82 71 62 51 42 38 34 29 30 34 38 43 46 48 52 48 61 80 89 97
53 51 52 56 60 66 71 80 84 83 91 91 83 73 61 48 42 36 31 28 27 32 32 35 41 47 42 44 56 72 87 97
64 60 60 61 62 69 76 80 88 88 93 88 78 66 55 47 41 34 28 23 25 28 28 30 36 42 42 46 53 62 74 84
64 66 67 69 72 78 82 88 83 95 93 84 70 60 54 46 38 30 23 20 21 21 26 30 35 40 44 50 55 60 66 67
69 70 72 73 73 78 86 81 89 98 87 80 70 62 52 44 35 25 22 19 16 17 21 28 34 39 52 59 66 70 68 73
82 76 76 74 79 89 88 86 101 95 91 82 71 59 51 40 31 25 20 15 13 13 18 26 31 39 45 51 59 64 61 70
91 82 82 79 87 93 87 99 108 102 94 82 68 59 51 44 35 27 18 11 9 10 13 19 22 30 39 46 50 51 54 67
98 97 89 90 91 96 96 115 105 101 89 75 69 62 56 46 37 28 20 13 7 5 11 17 23 26 33 40 46 53 60 72
106 100 92 94 98 102 111 114 109 102 83 77 67 61 53 46 37 31 24 16 9 2 9 15 18 24 33 41 46 56 64 70
86 87 89 94 101 105 122 120 108 86 82 73 66 58 51 44 39 34 27 20 12 5 5 8 14 21 28 36 49 59 66 71
Wind_Direction_850mb
232 228 223 227 225 228 231 236 237 238 236 233 231 230 230 233 241 248 258 268 278 285 291 294 296 298 298 299 299 295 293 290
239 234 230 235 231 231 232 233 234 237 235 232 228 226 228 233 237 245 257 269 278 285 289 294 299 299 300 302 299 296 295 294
244 238 234 239 235 234 234 233 237 235 233 230 226 224 226 230 236 246 258 267 276 282 289 296 300 303 304 303 301 299 297 298
242 236 245 242 238 237 236 236 233 232 231 228 221 221 224 228 237 246 256 265 272 281 291 299 304 303 305 304 303 301 299 298
242 253 256 250 247 242 239 236 233 231 230 228 220 220 222 227 236 248 255 263 272 285 297 302 304 306 309 308 305 303 301 301
247 248 256 254 249 243 241 237 233 230 229 225 218 218 219 224 233 243 253 263 275 291 298 302 304 308 310 308 306 306 305 302
265 263 254 258 257 251 241 235 232 231 228 220 215 215 218 223 231 241 251 262 279 290 299 300 303 309 311 311 309 305 304 306
273 266 265 261 260 254 241 233 231 228 225 217 213 214 219 224 231 238 248 263 278 290 298 301 306 310 313 311 307 306 308 305
277 271 267 264 256 247 238 234 230 226 223 214 212 212 218 225 231 239 249 261 277 292 298 302 310 310 312 309 310 313 315 312
277 273 270 262 250 241 231 228 225 223 218 211 211 213 217 223 231 239 250 264 283 295 300 304 310 312 314 321 321 319 315 311
273 271 268 257 241 230 227 224 224 222 212 207 209 214 221 224 230 241 253 269 287 297 303 308 313 318 326 327 323 319 315 317
268 269 259 248 239 230 225 225 223 216 206 204 206 210 216 223 229 238 252 270 287 296 307 310 319 326 330 327 323 319 318 312
257 259 252 244 235 229 225 219 217 207 200 203 203 208 216 221 227 233 247 267 284 301 311 318 325 332 333 328 324 323 317 318
257 248 243 239 233 228 224 219 211 198 195 197 201 208 213 218 220 229 243 264 285 300 314 327 334 340 338 331 329 328 327 328
257 244 240 236 230 227 225 215 202 193 192 195 202 206 209 213 217 227 241 257 278 301 323 336 341 344 346 335 336 335 333 332
269 261 251 234 224 223 218 208 193 190 193 197 200 201 203 207 211 217 230 250 279 308 334 339 342 348 334 337 339 337 335 336
268 257 249 231 222 220 212 196 191 190 190 194 197 198 204 199 199 205 212 237 273 321 326 338 342 334 335 343 346 344 345 355
268 266 246 233 223 218 205 192 192 193 190 195 197 199 196 194 193 192 194 199 230 290 321 354 347 341 347 348 356 0 1 7
264 253 243 232 222 212 197 190 189 190 191 198 198 194 189 186 185 185 188 185 190 259 358 359 359 357 359 358 354 3 11 9
249 242 234 225 217 202 189 189 186 188 189 190 191 187 188 184 180 182 178 175 165 136 50 8 12 9 7 9 10 10 11 9